Regional Weather Roundup
Issued by NWS Columbia, SC

Home | Current Version | Previous Version | Text Only | Print | Product List | Glossary On
Versions: 1 2 3 4 5 6 7 8 9 10 11 12 13 14 15 16 17 18 19 20 21 22 23 24 25 26 27 28 29 30 31 32 33 34 35 36 37 38 39 40 41 42 43 44 45 46 47 48 49 50
469
ASUS42 KCAE 231310
RWRCAE
REGIONAL WEATHER ROUNDUP
NATIONAL WEATHER SERVICE COLUMBIA SC
900 AM EDT SAT JUL 23 2016

NOTE: "FAIR" INDICATES FEW OR NO CLOUDS BELOW 12,000 FEET WITH NO
SIGNIFICANT WEATHER AND/OR OBSTRUCTIONS TO VISIBILITY.

NOT ALL STATIONS ARE QUALITY CONTROLLED BY THE NATIONAL
WEATHER SERVICE. USE DATA WITH CAUTION...ESPECIALLY
DEWPOINT OBSERVATIONS.

SCZ001>056-GAZ040-063>065-077-231400-
...UPSTATE SOUTH CAROLINA...

CITY           SKY/WX    TMP DP  RH WIND       PRES   REMARKS
ANDERSON       MOSUNNY   80  73  79 W3        30.02F
LIBERTY        MOSUNNY   76  71  84 CALM      30.03S
SPARTANBURG    SUNNY     75  70  83 CALM      30.02S
CLEMSON        SUNNY     80  71  74 CALM      30.04S
GREENVILLE     SUNNY     81  69  67 CALM      30.04S
GREENWOOD      SUNNY     83  71  67 W6        30.03S
GREER          SUNNY     79  71  76 CALM      30.02S
ROCK HILL      SUNNY     80  69  69 SW5       30.03R
CHESTER        SUNNY     79  70  73 CALM      30.03R
LAURENS        SUNNY     81  72  74 W3        30.02S


...CENTRAL SOUTH CAROLINA...

CITY           SKY/WX    TMP DP  RH WIND       PRES   REMARKS
COLUMBIA APT   MOSUNNY   85  73  67 SW5       30.00S
COLUMBIA OWENS SUNNY     82  73  74 SW3         N/A
MCENTIRE ANGB  MOSUNNY   82  74  74 SW6       30.01S
ORANGEBURG     SUNNY     81  74  79 SW3       30.02R
SUMTER SHAW    SUNNY     82  73  74 SW6       29.99R HAZE
NEWBERRY       SUNNY     81  73  78 SW7       30.05S
AIKEN          FAIR      81  72  74 W5        30.06R
MANNING        FAIR      81  73  78 SW3       30.01S
LANCASTER      SUNNY     81  73  78 SW6       30.02R
WINNSBORO      SUNNY     82  72  69 S3        30.02S


...EASTERN AND COASTAL SOUTH CAROLINA...

CITY           SKY/WX    TMP DP  RH WIND       PRES   REMARKS
MYRTLE BEACH   PTSUNNY   81  70  69 VRB5      30.04R
N MYRTLE BCH   CLOUDY    81  74  79 S3        30.02S
CONWAY         FAIR      77  73  88 S5        30.02R
MARION         FAIR      81  73  78 SW6       30.00S
HARTSVILLE     FAIR      81  73  78 SW5       30.00S
FLORENCE       SUNNY     83  74  74 W7        30.00S
DARLINGTON     SUNNY     81  76  84 W7        30.01R
CHARLESTON APT MOSUNNY   83  71  67 W7        30.02R
MOUNT PLEASANT FAIR      82  75  78 CALM      30.02S
WALTERBORO     SUNNY     82  73  74 CALM      30.03R
BEAUFORT       SUNNY     83  73  72 SW7       30.02R


...EASTERN GEORGIA...

CITY           SKY/WX    TMP DP  RH WIND       PRES   REMARKS
AUGUSTA BUSH F SUNNY     81  73  76 CALM      30.02R
AUGUSTA DANIEL SUNNY     84  73  69 CALM      30.03R
THOMSON        SUNNY     85  76  75 W3        30.07S
WASHINGTON     FAIR      82  77  83 CALM      30.03S
CLAXTON        FAIR      80  74  82 SW3       30.03R HAZE
STATESBORO     SUNNY     81  75  83 W3        30.03R
SAVANNAH       MOSUNNY   82  72  71 SW7       30.03S


...SOUTHERN NORTH CAROLINA...

CITY           SKY/WX    TMP DP  RH WIND       PRES   REMARKS
CHARLOTTE      MOSUNNY   79  69  71 W5        30.02S
MONROE         SUNNY     81  69  67 SW6       30.01R
ROCKINGHAM     SUNNY     79  75  90 W3        30.01R
RUTHERFORDTON    N/A     75  71  88 CALM      30.05S
ASHEVILLE      CLOUDY    71  66  84 NW7       30.12S

$$




USA.gov is the U.S. government's official web portal to all federal, state and local government web resources and services.